SCP
0 0 0 0 0 0 0 0 0 0 0 0 0 0 0 0 -0 0 -0 0 0 0 0 0 0 0 0 0 0 0 0 0 0 0 0 0 0 0 0 -0 -0 -0 -0 0 -1
0 0 0 0 0 0 0 0 0 0 0 0 0 0 0 0 0 -0 0 0 0 0 0 0 0 0 0 0 0 -0 -0 0 0 0 0 0 0 0 -0 -0 0 -0 -0 -0 -1
0 0 0 0 0 0 0 0 0 0 0 0 0 0 0 0 0 0 0 0 0 0 0 -0 0 -0 0 0 0 -0 -0 0 0 0 0 0 0 0 -0 0 0 -0 0 -0 -0
0 0 0 0 0 0 0 0 0 0 0 0 0 0 0 0 0 0 0 0 0 0 0 0 0 -0 0 -0 -0 -0 -0 0 0 0 0 0 0 0 -0 0 0 -0 -0 -0 -0
0 0 0 0 0 0 0 0 0 0 0 0 0 0 0 0 0 0 -0 0 -0 0 0 0 -0 -0 -0 -0 0 -0 -0 -0 -0 0 0 0 0 0 0 -0 0 -0 -0 -0 -0
0 0 0 0 0 0 0 0 0 0 0 0 0 0 0 0 0 0 0 0 0 -0 0 0 0 0 0 0 0 0 -0 -0 -0 0 0 0 0 0 0 0 0 -0 -0 -0 -0
0 0 0 0 0 0 -0 -0 0 0 0 0 0 0 0 0 0 0 0 0 0 0 0 0 0 0 0 0 0 0 -0 -0 -0 0 0 0 0 0 0 0 0 0 0 0 -0
-0 0 0 0 0 0 -0 -0 0 0 0 0 -0 0 0 0 0 0 0 0 0 0 0 0 0 0 0 0 0 0 0 -0 -0 -0 0 0 0 0 0 0 0 0 0 0 -0
-0 -0 0 0 0 0 -0 -0 -0 0 0 0 0 0 0 0 0 0 0 0 0 0 0 0 0 0 0 0 0 0 0 0 0 0 0 0 -0 0 0 0 0 0 0 0 0
-0 -0 0 0 0 0 0 -0 -0 -0 -0 0 0 0 0 0 0 0 0 0 0 0 0 0 0 0 0 0 0 0 0 0 0 0 0 0 -0 0 0 0 0 0 0 0 0
-0 -0 0 0 0 0 0 -0 0 0 0 0 0 0 0 0 0 0 0 0 0 -0 0 0 0 0 0 0 0 0 0 0 0 0 0 0 0 0 0 0 0 0 0 0 0
-0 -0 0 0 -0 -0 -0 0 0 0 0 0 0 0 0 0 0 0 0 -0 0 0 0 0 0 0 0 0 0 0 0 0 0 0 0 0 0 0 0 0 0 0 0 0 0
-0 -0 -0 -0 0 -0 -0 0 0 0 0 0 0 0 0 -0 0 0 -0 -0 0 0 0 0 0 0 0 0 0 0 0 0 0 0 0 0 0 0 0 0 0 0 0 0 0
-0 -0 -0 0 -0 0 0 0 0 0 0 0 0 0 0 0 0 0 0 0 0 0 0 0 0 0 0 0 0 0 0 0 0 0 0 0 0 0 0 0 0 0 0 0 0
-0 -0 -0 0 0 -0 0 0 -0 0 0 0 0 0 0 0 0 0 0 0 0 0 0 0 0 0 0 0 0 0 0 0 0 0 0 0 0 0 0 0 0 0 0 0 0
0 -0 0 0 0 0 0 -0 -0 0 0 0 0 0 0 0 0 0 0 0 0 0 0 0 0 0 0 0 0 0 0 0 0 0 0 0 0 0 0 0 0 0 0 0 0
0 0 0 0 0 0 0 -0 0 0 0 0 0 0 0 0 0 0 0 0 0 0 0 0 0 0 0 0 0 0 0 0 0 0 0 0 0 0 0 0 0 0 0 0 0
0 0 0 0 0 0 -0 0 0 0 0 0 0 0 0 0 0 0 0 0 0 0 0 0 0 0 0 0 0 0 0 0 0 0 0 0 0 0 0 0 0 0 0 0 1
0 0 0 0 0 -0 -0 0 0 0 0 0 0 0 0 0 0 0 0 0 0 0 0 0 0 0 0 0 0 0 0 0 0 0 0 0 0 0 0 0 0 0 0 0 0
0 0 0 0 0 0 0 0 0 0 0 0 0 0 0 0 0 0 0 0 0 0 0 0 0 0 0 0 0 0 0 0 0 0 0 0 0 0 0 0 0 0 0 0 0
0 0 0 0 0 0 0 0 0 0 0 0 0 0 0 0 0 0 0 0 0 0 0 0 0 0 0 0 0 0 0 0 0 0 0 0 0 0 0 0 0 0 0 0 0
0 0 0 0 0 0 0 0 0 0 0 0 0 0 0 0 0 0 0 0 0 0 0 0 0 0 0 0 0 0 0 0 0 0 0 0 0 0 0 0 0 0 0 0 0
0 0 0 0 0 0 0 0 0 0 0 0 0 0 0 0 0 0 0 0 0 0 0 0 0 0 0 -0 -0 0 0 0 0 0 0 0 0 0 0 0 0 0 0 0 0
0 0 0 0 0 0 0 0 0 0 0 0 0 0 0 0 0 0 0 0 0 0 0 -0 0 0 0 0 0 0 0 0 0 0 0 0 0 0 0 0 0 0 0 0 0
0 0 0 0 0 0 0 0 0 0 0 0 0 0 0 0 0 0 0 0 0 0 -0 -0 0 -0 -0 -0 -0 -0 -0 0 0 0 0 0 0 0 0 0 0 0 -0 -0 -0
0 0 0 0 0 0 0 0 0 0 0 0 0 0 0 0 0 0 0 0 0 0 0 -0 0 -0 -0 0 0 0 0 0 0 0 0 0 0 0 0 0 0 0 0 0 -0
0 0 0 0 0 0 0 0 0 0 0 0 0 0 0 0 0 0 0 0 0 0 0 0 0 0 0 0 0 -0 0 0 0 0 0 0 0 0 0 0 0 0 0 0 0
Wind_Speed_500mb
20 17 14 12 12 12 12 13 13 14 15 15 14 15 16 16 17 21 24 21 20 31 19 19 15 16 17 21 16 13 19 18 10 10 8 9 19 17 10 10 14 12 1 15 38
22 17 14 12 12 13 12 11 12 12 13 13 14 15 14 15 19 26 21 17 20 22 34 20 23 22 32 30 21 24 22 16 7 5 12 8 13 28 18 16 19 17 12 28 38
24 19 14 11 11 12 12 10 11 11 11 12 12 13 12 12 14 6 10 5 13 21 22 25 18 23 36 32 34 32 28 8 12 10 13 12 9 16 25 22 23 24 25 36 38
26 20 16 11 9 10 10 10 10 10 11 10 10 10 11 7 2 10 9 8 13 21 18 24 22 28 32 32 34 31 36 16 9 9 17 12 5 12 23 21 4 13 34 44 45
26 21 17 12 9 8 8 9 9 9 9 9 9 9 6 9 10 15 10 7 12 24 18 20 24 27 28 31 25 34 37 21 23 20 22 22 17 15 22 20 13 14 38 44 46
27 23 18 13 9 7 7 9 9 9 9 9 7 7 5 14 13 9 7 8 13 21 18 15 13 17 18 22 30 26 41 29 26 30 25 25 17 13 15 22 18 24 36 41 46
27 24 19 12 7 5 5 7 7 7 6 6 6 7 11 12 8 8 14 10 17 13 13 15 9 18 9 16 11 13 22 29 38 39 34 24 28 21 22 17 22 26 30 38 45
26 23 18 10 2 3 6 7 6 4 5 4 3 3 7 7 12 14 11 8 15 12 8 14 13 9 15 3 11 22 20 29 33 35 30 22 32 31 21 20 24 23 29 36 44
23 20 15 5 5 10 10 7 4 4 4 3 2 2 5 4 1 17 17 6 15 12 8 17 13 8 14 22 18 16 25 25 30 17 27 24 36 35 13 23 35 32 31 37 42
19 15 10 6 14 14 11 8 2 3 4 2 6 7 8 3 3 15 19 20 14 22 16 15 15 16 16 18 22 18 18 17 22 14 21 36 35 38 23 21 27 40 42 43 47
15 9 5 12 17 13 7 5 3 2 9 12 6 7 3 5 12 13 23 18 20 18 15 17 17 19 10 8 18 16 19 24 18 11 21 27 30 31 38 32 34 38 45 50 56
10 3 7 16 17 14 13 3 7 6 8 6 8 11 16 4 10 12 25 21 19 19 11 15 20 4 6 9 15 19 24 26 21 13 13 29 38 40 36 38 41 48 50 51 55
8 4 12 15 15 11 6 1 16 11 10 6 4 12 6 17 6 12 21 22 19 17 17 19 13 8 11 12 18 22 26 27 24 24 25 33 38 40 37 54 43 37 43 48 57
6 11 19 13 10 9 5 16 19 6 9 9 5 11 9 10 9 9 2 14 12 11 8 12 4 15 16 19 16 23 14 18 23 21 20 4 25 27 26 33 36 45 38 42 48
6 14 22 21 12 5 7 18 8 4 10 8 14 9 22 7 5 18 20 10 7 3 11 12 4 7 13 9 7 20 5 16 21 26 29 31 22 29 32 27 33 43 46 33 34
7 15 23 20 11 9 11 9 2 12 6 8 11 12 7 36 17 9 10 20 6 11 11 18 11 13 25 21 18 27 27 32 32 27 31 37 36 34 27 29 26 36 36 38 30
12 19 18 17 10 9 7 5 10 10 0 9 10 10 19 19 16 26 30 32 16 8 4 6 6 10 34 24 14 14 25 23 27 25 27 29 29 20 19 22 21 23 29 25 17
21 17 13 5 9 5 5 11 11 5 10 8 8 12 12 12 14 18 10 18 34 21 7 9 17 23 18 21 18 29 20 21 40 31 31 21 15 12 3 15 25 46 45 44 44
19 10 9 2 6 6 14 8 9 5 6 9 3 5 12 12 7 9 23 13 23 29 15 12 7 16 13 25 13 15 15 26 24 35 36 37 47 36 11 24 35 42 50 55 59
13 5 20 3 4 6 3 9 7 7 6 4 2 8 5 11 5 7 11 19 10 21 15 9 13 11 20 19 12 21 19 16 18 33 44 30 34 19 25 25 28 37 51 58 61
4 7 25 3 11 6 4 10 16 15 5 11 7 8 13 6 13 9 12 15 16 13 14 10 5 13 17 17 25 18 5 12 13 17 28 34 30 19 22 31 37 50 63 69 68
6 7 26 9 6 10 10 14 10 13 18 11 14 15 13 7 13 9 12 13 15 12 7 14 6 15 16 9 14 17 19 19 10 18 17 20 30 18 15 39 59 70 71 70 67
6 8 22 10 7 13 25 30 24 7 14 7 8 14 9 7 9 13 13 13 15 13 11 12 5 12 13 14 13 14 26 23 22 23 32 27 24 4 37 59 73 71 71 70 67
7 4 23 32 27 32 28 14 14 17 27 23 15 12 10 15 11 14 19 10 11 13 10 8 3 8 12 16 18 25 31 27 24 21 33 44 56 57 61 62 77 72 74 77 76
11 9 6 9 17 19 17 14 20 10 11 11 11 13 6 10 18 17 12 20 10 4 3 6 4 11 14 17 19 21 27 30 33 32 34 48 53 53 52 54 59 91 82 83 80
10 12 30 26 20 22 8 15 22 17 6 9 12 10 9 17 14 16 7 6 8 7 5 5 5 14 23 7 24 22 9 13 19 24 34 48 59 48 73 76 63 67 74 86 84
32 28 15 13 12 11 12 7 15 11 13 14 9 14 18 17 10 7 4 5 5 6 7 8 13 15 10 27 23 10 24 28 33 35 45 52 65 80 69 61 55 65 71 86 89
Wind_Direction_500mb
342 324 304 287 275 266 259 250 244 236 234 234 239 247 256 268 274 271 266 243 241 229 222 211 208 209 212 231 236 256 253 226 182 245 62 127 197 175 181 189 187 183 118 142 161
349 333 311 287 271 265 258 250 244 232 230 235 239 246 256 270 280 272 255 234 228 221 218 208 210 208 220 231 222 238 241 224 57 21 349 34 228 175 192 200 198 169 135 150 162
352 341 324 295 271 261 256 248 240 227 225 231 238 246 255 277 288 171 167 218 227 214 204 207 215 214 228 224 218 228 251 201 203 281 313 357 164 208 212 217 232 209 177 165 170
352 344 331 309 277 261 253 242 230 219 219 223 231 239 245 246 291 179 207 261 229 199 189 193 208 213 227 214 222 244 238 276 267 268 290 314 335 219 230 245 106 218 184 175 178
351 345 333 314 286 265 249 233 216 212 216 221 226 229 236 247 245 218 261 242 209 176 179 190 211 221 227 224 208 236 249 244 250 266 279 294 278 303 265 241 239 206 181 186 181
349 344 335 317 288 258 238 214 199 199 209 217 224 228 216 244 238 226 195 163 161 171 187 198 234 225 255 232 225 243 247 251 253 259 261 276 275 297 244 194 193 175 182 190 194
347 344 339 324 290 247 224 187 181 192 208 220 221 232 247 258 215 169 155 152 161 180 194 202 214 205 195 202 221 222 239 232 246 249 255 272 261 242 247 194 202 201 194 197 202
347 347 344 335 281 178 154 150 168 196 214 225 214 232 251 241 210 192 164 176 179 176 174 190 175 215 238 147 196 227 238 248 230 233 238 232 252 223 201 213 223 210 212 208 208
351 350 354 9 123 130 126 128 160 208 213 208 230 213 146 63 138 200 170 177 156 164 146 158 181 230 196 222 214 198 249 214 255 196 254 218 247 250 174 227 237 236 224 220 217
352 357 16 94 119 118 117 95 99 207 222 274 245 229 185 108 138 166 167 147 138 142 138 174 204 223 221 225 239 253 217 224 255 176 228 244 243 254 211 232 229 232 235 230 225
348 4 61 122 122 110 97 90 13 202 255 260 316 291 164 69 115 158 165 154 155 193 202 200 234 221 236 269 315 290 270 270 269 277 270 264 258 251 250 246 243 241 235 235 230
344 10 125 134 131 111 91 72 37 325 301 262 261 255 233 172 139 144 179 199 202 214 184 203 231 253 260 254 256 258 264 261 273 273 268 261 258 253 245 247 249 246 245 238 237
326 182 155 142 153 158 108 211 346 331 251 112 111 44 103 181 89 83 179 214 223 223 217 271 83 96 220 215 248 247 261 274 271 285 270 262 264 256 251 245 247 247 249 246 238
296 196 177 167 172 201 203 325 332 299 239 87 105 49 60 166 87 79 348 273 220 265 247 268 311 245 246 253 257 270 278 260 265 263 269 121 278 281 242 237 231 239 232 232 235
252 193 185 177 176 164 272 326 323 210 201 61 56 66 49 90 131 32 20 249 301 178 247 98 200 228 256 298 276 286 314 277 279 271 274 255 256 265 256 231 252 238 240 241 239
207 182 181 189 196 221 322 337 148 230 135 82 57 15 121 50 44 6 47 48 43 261 229 285 304 308 325 305 263 295 282 273 267 254 254 253 251 267 260 226 243 249 231 247 251
163 163 171 179 205 249 308 191 227 275 128 56 10 3 72 48 63 49 68 55 30 281 183 295 60 82 10 315 268 264 271 274 263 243 251 256 258 280 289 287 269 282 287 283 272
140 141 147 160 211 222 197 222 244 76 41 23 5 55 76 7 58 46 78 64 30 4 337 319 174 13 3 10 316 290 292 282 295 287 288 297 250 250 25 285 358 16 1 352 342
143 128 52 74 188 187 232 229 35 35 3 348 233 197 105 55 84 96 61 56 32 17 14 340 171 15 14 337 333 352 284 322 285 274 271 268 267 257 260 48 29 15 7 359 350
163 106 18 19 148 139 180 77 108 28 1 282 75 343 123 30 120 81 79 34 33 23 345 44 292 50 339 307 164 342 328 299 234 271 270 267 269 273 63 40 21 9 0 352 349
202 225 357 145 92 68 108 79 105 51 78 7 69 103 77 76 49 67 66 75 26 28 40 1 301 350 320 31 329 329 317 314 303 279 286 282 272 72 67 30 9 356 347 343 341
225 229 345 120 74 62 92 123 100 76 71 82 60 67 68 54 69 91 91 67 21 354 34 26 318 307 318 17 48 46 47 3 313 297 304 294 270 161 71 8 354 336 331 329 330
105 46 8 92 136 100 109 96 72 92 41 78 81 60 75 92 110 93 106 74 36 31 25 353 108 298 161 165 175 7 330 317 299 283 268 279 269 111 332 338 332 329 335 330 329
100 130 48 57 88 122 122 104 113 70 66 71 90 106 118 86 84 129 119 84 77 66 14 295 88 349 330 329 315 304 308 311 296 279 286 269 295 299 315 321 319 324 321 322 324
62 69 24 99 71 98 91 113 119 112 77 40 90 77 99 125 111 110 101 130 123 75 66 339 20 316 320 293 295 295 293 298 290 291 283 301 298 303 311 308 315 311 316 315 311
97 120 99 86 88 92 90 83 105 98 15 80 103 93 79 93 37 121 121 88 63 86 59 25 31 320 296 355 310 296 305 313 305 309 312 306 298 301 314 310 305 300 301 307 307
87 93 105 96 94 91 48 97 108 123 65 60 103 128 104 67 38 50 60 90 75 354 34 355 346 332 330 333 304 145 17 358 337 329 319 302 306 310 301 308 314 304 304 300 297
Wind_Speed_850mb
20 17 14 12 12 12 12 13 13 14 15 15 14 15 16 16 17 21 24 21 20 31 19 19 15 16 17 21 16 13 19 18 10 10 8 9 19 17 10 10 14 12 1 15 38
22 17 14 12 12 13 12 11 12 12 13 13 14 15 14 15 19 26 21 17 20 22 34 20 23 22 32 30 21 24 22 16 7 5 12 8 13 28 18 16 19 17 12 28 38
24 19 14 11 11 12 12 10 11 11 11 12 12 13 12 12 14 6 10 5 13 21 22 25 18 23 36 32 34 32 28 8 12 10 13 12 9 16 25 22 23 24 25 36 38
26 20 16 11 9 10 10 10 10 10 11 10 10 10 11 7 2 10 9 8 13 21 18 24 22 28 32 32 34 31 36 16 9 9 17 12 5 12 23 21 4 13 34 44 45
26 21 17 12 9 8 8 9 9 9 9 9 9 9 6 9 10 15 10 7 12 24 18 20 24 27 28 31 25 34 37 21 23 20 22 22 17 15 22 20 13 14 38 44 46
27 23 18 13 9 7 7 9 9 9 9 9 7 7 5 14 13 9 7 8 13 21 18 15 13 17 18 22 30 26 41 29 26 30 25 25 17 13 15 22 18 24 36 41 46
27 24 19 12 7 5 5 7 7 7 6 6 6 7 11 12 8 8 14 10 17 13 13 15 9 18 9 16 11 13 22 29 38 39 34 24 28 21 22 17 22 26 30 38 45
26 23 18 10 2 3 6 7 6 4 5 4 3 3 7 7 12 14 11 8 15 12 8 14 13 9 15 3 11 22 20 29 33 35 30 22 32 31 21 20 24 23 29 36 44
23 20 15 5 5 10 10 7 4 4 4 3 2 2 5 4 1 17 17 6 15 12 8 17 13 8 14 22 18 16 25 25 30 17 27 24 36 35 13 23 35 32 31 37 42
19 15 10 6 14 14 11 8 2 3 4 2 6 7 8 3 3 15 19 20 14 22 16 15 15 16 16 18 22 18 18 17 22 14 21 36 35 38 23 21 27 40 42 43 47
15 9 5 12 17 13 7 5 3 2 9 12 6 7 3 5 12 13 23 18 20 18 15 17 17 19 10 8 18 16 19 24 18 11 21 27 30 31 38 32 34 38 45 50 56
10 3 7 16 17 14 13 3 7 6 8 6 8 11 16 4 10 12 25 21 19 19 11 15 20 4 6 9 15 19 24 26 21 13 13 29 38 40 36 38 41 48 50 51 55
8 4 12 15 15 11 6 1 16 11 10 6 4 12 6 17 6 12 21 22 19 17 17 19 13 8 11 12 18 22 26 27 24 24 25 33 38 40 37 54 43 37 43 48 57
6 11 19 13 10 9 5 16 19 6 9 9 5 11 9 10 9 9 2 14 12 11 8 12 4 15 16 19 16 23 14 18 23 21 20 4 25 27 26 33 36 45 38 42 48
6 14 22 21 12 5 7 18 8 4 10 8 14 9 22 7 5 18 20 10 7 3 11 12 4 7 13 9 7 20 5 16 21 26 29 31 22 29 32 27 33 43 46 33 34
7 15 23 20 11 9 11 9 2 12 6 8 11 12 7 36 17 9 10 20 6 11 11 18 11 13 25 21 18 27 27 32 32 27 31 37 36 34 27 29 26 36 36 38 30
12 19 18 17 10 9 7 5 10 10 0 9 10 10 19 19 16 26 30 32 16 8 4 6 6 10 34 24 14 14 25 23 27 25 27 29 29 20 19 22 21 23 29 25 17
21 17 13 5 9 5 5 11 11 5 10 8 8 12 12 12 14 18 10 18 34 21 7 9 17 23 18 21 18 29 20 21 40 31 31 21 15 12 3 15 25 46 45 44 44
19 10 9 2 6 6 14 8 9 5 6 9 3 5 12 12 7 9 23 13 23 29 15 12 7 16 13 25 13 15 15 26 24 35 36 37 47 36 11 24 35 42 50 55 59
13 5 20 3 4 6 3 9 7 7 6 4 2 8 5 11 5 7 11 19 10 21 15 9 13 11 20 19 12 21 19 16 18 33 44 30 34 19 25 25 28 37 51 58 61
4 7 25 3 11 6 4 10 16 15 5 11 7 8 13 6 13 9 12 15 16 13 14 10 5 13 17 17 25 18 5 12 13 17 28 34 30 19 22 31 37 50 63 69 68
6 7 26 9 6 10 10 14 10 13 18 11 14 15 13 7 13 9 12 13 15 12 7 14 6 15 16 9 14 17 19 19 10 18 17 20 30 18 15 39 59 70 71 70 67
6 8 22 10 7 13 25 30 24 7 14 7 8 14 9 7 9 13 13 13 15 13 11 12 5 12 13 14 13 14 26 23 22 23 32 27 24 4 37 59 73 71 71 70 67
7 4 23 32 27 32 28 14 14 17 27 23 15 12 10 15 11 14 19 10 11 13 10 8 3 8 12 16 18 25 31 27 24 21 33 44 56 57 61 62 77 72 74 77 76
11 9 6 9 17 19 17 14 20 10 11 11 11 13 6 10 18 17 12 20 10 4 3 6 4 11 14 17 19 21 27 30 33 32 34 48 53 53 52 54 59 91 82 83 80
10 12 30 26 20 22 8 15 22 17 6 9 12 10 9 17 14 16 7 6 8 7 5 5 5 14 23 7 24 22 9 13 19 24 34 48 59 48 73 76 63 67 74 86 84
32 28 15 13 12 11 12 7 15 11 13 14 9 14 18 17 10 7 4 5 5 6 7 8 13 15 10 27 23 10 24 28 33 35 45 52 65 80 69 61 55 65 71 86 89
Wind_Direction_850mb
342 324 304 287 275 266 259 250 244 236 234 234 239 247 256 268 274 271 266 243 241 229 222 211 208 209 212 231 236 256 253 226 182 245 62 127 197 175 181 189 187 183 118 142 161
349 333 311 287 271 265 258 250 244 232 230 235 239 246 256 270 280 272 255 234 228 221 218 208 210 208 220 231 222 238 241 224 57 21 349 34 228 175 192 200 198 169 135 150 162
352 341 324 295 271 261 256 248 240 227 225 231 238 246 255 277 288 171 167 218 227 214 204 207 215 214 228 224 218 228 251 201 203 281 313 357 164 208 212 217 232 209 177 165 170
352 344 331 309 277 261 253 242 230 219 219 223 231 239 245 246 291 179 207 261 229 199 189 193 208 213 227 214 222 244 238 276 267 268 290 314 335 219 230 245 106 218 184 175 178
351 345 333 314 286 265 249 233 216 212 216 221 226 229 236 247 245 218 261 242 209 176 179 190 211 221 227 224 208 236 249 244 250 266 279 294 278 303 265 241 239 206 181 186 181
349 344 335 317 288 258 238 214 199 199 209 217 224 228 216 244 238 226 195 163 161 171 187 198 234 225 255 232 225 243 247 251 253 259 261 276 275 297 244 194 193 175 182 190 194
347 344 339 324 290 247 224 187 181 192 208 220 221 232 247 258 215 169 155 152 161 180 194 202 214 205 195 202 221 222 239 232 246 249 255 272 261 242 247 194 202 201 194 197 202
347 347 344 335 281 178 154 150 168 196 214 225 214 232 251 241 210 192 164 176 179 176 174 190 175 215 238 147 196 227 238 248 230 233 238 232 252 223 201 213 223 210 212 208 208
351 350 354 9 123 130 126 128 160 208 213 208 230 213 146 63 138 200 170 177 156 164 146 158 181 230 196 222 214 198 249 214 255 196 254 218 247 250 174 227 237 236 224 220 217
352 357 16 94 119 118 117 95 99 207 222 274 245 229 185 108 138 166 167 147 138 142 138 174 204 223 221 225 239 253 217 224 255 176 228 244 243 254 211 232 229 232 235 230 225
348 4 61 122 122 110 97 90 13 202 255 260 316 291 164 69 115 158 165 154 155 193 202 200 234 221 236 269 315 290 270 270 269 277 270 264 258 251 250 246 243 241 235 235 230
344 10 125 134 131 111 91 72 37 325 301 262 261 255 233 172 139 144 179 199 202 214 184 203 231 253 260 254 256 258 264 261 273 273 268 261 258 253 245 247 249 246 245 238 237
326 182 155 142 153 158 108 211 346 331 251 112 111 44 103 181 89 83 179 214 223 223 217 271 83 96 220 215 248 247 261 274 271 285 270 262 264 256 251 245 247 247 249 246 238
296 196 177 167 172 201 203 325 332 299 239 87 105 49 60 166 87 79 348 273 220 265 247 268 311 245 246 253 257 270 278 260 265 263 269 121 278 281 242 237 231 239 232 232 235
252 193 185 177 176 164 272 326 323 210 201 61 56 66 49 90 131 32 20 249 301 178 247 98 200 228 256 298 276 286 314 277 279 271 274 255 256 265 256 231 252 238 240 241 239
207 182 181 189 196 221 322 337 148 230 135 82 57 15 121 50 44 6 47 48 43 261 229 285 304 308 325 305 263 295 282 273 267 254 254 253 251 267 260 226 243 249 231 247 251
163 163 171 179 205 249 308 191 227 275 128 56 10 3 72 48 63 49 68 55 30 281 183 295 60 82 10 315 268 264 271 274 263 243 251 256 258 280 289 287 269 282 287 283 272
140 141 147 160 211 222 197 222 244 76 41 23 5 55 76 7 58 46 78 64 30 4 337 319 174 13 3 10 316 290 292 282 295 287 288 297 250 250 25 285 358 16 1 352 342
143 128 52 74 188 187 232 229 35 35 3 348 233 197 105 55 84 96 61 56 32 17 14 340 171 15 14 337 333 352 284 322 285 274 271 268 267 257 260 48 29 15 7 359 350
163 106 18 19 148 139 180 77 108 28 1 282 75 343 123 30 120 81 79 34 33 23 345 44 292 50 339 307 164 342 328 299 234 271 270 267 269 273 63 40 21 9 0 352 349
202 225 357 145 92 68 108 79 105 51 78 7 69 103 77 76 49 67 66 75 26 28 40 1 301 350 320 31 329 329 317 314 303 279 286 282 272 72 67 30 9 356 347 343 341
225 229 345 120 74 62 92 123 100 76 71 82 60 67 68 54 69 91 91 67 21 354 34 26 318 307 318 17 48 46 47 3 313 297 304 294 270 161 71 8 354 336 331 329 330
105 46 8 92 136 100 109 96 72 92 41 78 81 60 75 92 110 93 106 74 36 31 25 353 108 298 161 165 175 7 330 317 299 283 268 279 269 111 332 338 332 329 335 330 329
100 130 48 57 88 122 122 104 113 70 66 71 90 106 118 86 84 129 119 84 77 66 14 295 88 349 330 329 315 304 308 311 296 279 286 269 295 299 315 321 319 324 321 322 324
62 69 24 99 71 98 91 113 119 112 77 40 90 77 99 125 111 110 101 130 123 75 66 339 20 316 320 293 295 295 293 298 290 291 283 301 298 303 311 308 315 311 316 315 311
97 120 99 86 88 92 90 83 105 98 15 80 103 93 79 93 37 121 121 88 63 86 59 25 31 320 296 355 310 296 305 313 305 309 312 306 298 301 314 310 305 300 301 307 307
87 93 105 96 94 91 48 97 108 123 65 60 103 128 104 67 38 50 60 90 75 354 34 355 346 332 330 333 304 145 17 358 337 329 319 302 306 310 301 308 314 304 304 300 297